Simultaneous Nadir Overpasses (SNOs) Predictions

Prediction of SNOs between NOAA-20 and LANDSAT-8 Satellite Orbit:

Table of predicted SNOs for the next 14.0 days since TLE Epoch: 8/29/2020
Index Date (NOAA-20) Time (NOAA-20) Lat,Lon (NOAA-20) SZA (NOAA-20 ) Date (LANDSAT-8) Time (LANDSAT-8) Lat,Lon (LANDSAT-8) SZA (LANDSAT-8 ) Distance(km) Time Diff (sec)
1 08/30/2020 07:22:44 70.06, 65.61 61.21 08/30/2020 07:23:16 70.03, 65.60 61.18 3.37 32
2 08/30/2020 08:13:25 -69.93,-126.88 118.91 08/30/2020 08:12:46 -69.93,-126.91 118.91 1.41 39
3 09/01/2020 22:49:02 -70.64, 13.18 117.24 09/01/2020 22:50:12 -70.54, 14.58 117.38 52.69 70
4 09/01/2020 23:39:36 69.99,-178.50 62.10 09/01/2020 23:39:47 70.00,-178.58 62.11 2.75 11
5 09/02/2020 00:30:18 -69.91, -11.06 117.98 09/02/2020 00:29:17 -69.89, -11.08 117.98 1.65 61
6 09/04/2020 15:05:45 -70.09, 129.82 116.84 09/04/2020 15:06:51 -70.07, 129.76 116.86 2.84 66
7 09/04/2020 15:56:29 69.97, -62.70 63.06 09/04/2020 15:56:18 69.95, -62.76 63.04 2.82 11
8 09/04/2020 16:47:04 -69.51, 105.29 117.40 09/04/2020 16:45:53 -69.58, 104.36 117.31 36.97 71
9 09/07/2020 07:22:37 -70.06,-114.37 115.87 09/07/2020 07:23:20 -70.08,-114.34 115.85 2.35 43
10 09/07/2020 08:13:21 69.95, 53.11 64.03 09/07/2020 08:12:47 69.96, 53.14 64.05 1.91 34
11 09/09/2020 22:49:02 70.87,-167.20 65.97 09/09/2020 22:50:09 70.79,-165.05 65.84 78.95 67
12 09/09/2020 23:39:30 -70.04, 1.44 114.89 09/09/2020 23:39:51 -70.04, 1.47 114.89 1.40 21
13 09/10/2020 00:30:14 69.93, 168.91 65.02 09/10/2020 00:29:18 69.92, 168.95 65.01 2.24 56
